This demonstration page uses our WeatherBlox Daily Observations layout. Learn more.

Left ArrowRight Arrow

38.88101, -77.10428

Hourly Observations for February 2, 2021

Temp ( °F °C ) Dew Point ( °F °C ) Humidity (%) Winds ( mph kmh ) Pressure ( in mb ) Visibility ( mi km ) Precip ( " mm )
12:25 am 00:25 Cloudy with Light Snow 34 1.1 30 -1.1 85 85 NW 15 24 29.65 1004 3 5 0.00 0.00
12:52 am 00:52 Windy with Snow Likely 34 1.1 30 -1.1 85 85 NW 23 37 29.65 1004 3 5 0.01 0.25
12:54 am 00:54 Cloudy with Light Snow 34 1.1 30 -1.1 85 85 NW 18 30 29.65 1004 2 3 0.00 0.00
1:07 am 01:07 Cloudy with Light Snow 33 0.6 31 -0.6 92 92 N 8 13 29.65 1004 3 5 0.00 0.00
1:13 am 01:13 Cloudy with Light Snow 33 0.6 31 -0.6 92 92 NW 15 24 29.65 1004 3 5 0.00 0.00
1:17 am 01:17 Cloudy with Light Snow 33 0.6 31 -0.6 92 92 NW 18 30 29.65 1004 4 6 0.00 0.00
1:31 am 01:31 Cloudy with Light Snow 33 0.6 31 -0.6 92 92 N 8 13 29.65 1004 4 6 0.01 0.25
1:38 am 01:38 Cloudy with Light Snow 34 1.1 31 -0.6 89 89 NNW 9 15 29.64 1004 5 8 0.01 0.25
1:52 am 01:52 Cloudy with Light Snow 34 1.1 31 -0.6 89 89 NNW 9 15 29.64 1004 6 10 0.01 0.25
2:07 am 02:07 Cloudy with Light Snow 34 1.1 30 -1.1 85 85 NW 10 17 29.64 1004 5 8 0.00 0.00
2:20 am 02:20 Cloudy with Light Snow 34 1.1 31 -0.6 89 89 NW 13 20 29.63 1003 8 13 0.00 0.00
2:52 am 02:52 Cloudy with Light Snow 34 1.1 31 -0.6 89 89 NNW 13 20 29.62 1003 7 11 0.00 0.00
2:59 am 02:59 Cloudy with Light Snow 34 1.1 31 -0.6 89 89 NNW 15 24 29.63 1003 6 10 0.00 0.00
3:52 am 03:52 Cloudy with Light Snow 34 1.1 30 -1.1 85 85 NNW 15 24 29.61 1003 3 4 0.00 0.00
4:52 am 04:52 Cloudy with Light Snow 34 1.1 30 -1.1 85 85 NW 14 22 29.61 1003 3 4 0.00 0.00
5:19 am 05:19 Cloudy with Light Snow 33 0.6 30 -1.1 89 89 NNW 16 26 29.61 1003 2 3 0.01 0.25
5:33 am 05:33 Cloudy with Light Snow 33 0.6 30 -1.1 89 89 NNW 14 22 29.61 1003 3 5 0.01 0.25
5:47 am 05:47 Cloudy with Light Snow 34 1 30 -1 87 87 NNW 15 24 29.61 1003 3 5 0.01 0.25
5:52 am 05:52 Cloudy with Light Snow 33 0.6 30 -1.1 89 89 NW 16 26 29.61 1003 3 5 0.01 0.25
6:14 am 06:14 Cloudy with Light Snow 33 0.6 29 -1.7 85 85 NNW 15 24 29.61 1003 4 6 0.00 0.00
6:23 am 06:23 Cloudy with Light Snow 33 0.6 29 -1.7 85 85 NW 16 26 29.61 1003 4 6 0.00 0.00
6:40 am 06:40 Cloudy with Light Snow 33 0.6 29 -1.7 85 85 NW 15 24 29.62 1003 3 4 0.00 0.00
6:48 am 06:48 Cloudy with Light Snow 34 1 28 -2 81 81 NNW 14 22 29.62 1003 2 3 0.00 0.00
6:52 am 06:52 Cloudy with Light Snow 33 0.6 29 -1.7 85 85 NW 15 24 29.61 1003 2 2 0.00 0.00
7:12 am 07:12 Cloudy with Light Snow 33 0.6 29 -1.7 85 85 NW 12 19 29.62 1003 1 2 0.00 0.00
7:52 am 07:52 Cloudy with Light Snow 32 0 29 -1.7 88 88 NW 14 22 29.62 1003 1 2 0.01 0.25
8:52 am 08:52 Cloudy with Light Snow 33 0.6 28 -2.2 82 82 NW 15 24 29.61 1003 2 3 0.00 0.00
9:13 am 09:13 Cloudy with Light Snow 33 0.6 28 -2.2 82 82 NW 16 26 29.62 1003 2 3 0.00 0.00
9:46 am 09:46 Cloudy with Light Snow 34 1 28 -2 81 81 NW 16 26 29.61 1003 2 3 0.00 0.00
9:52 am 09:52 Cloudy with Light Snow 33 0.6 28 -2.2 82 82 NW 17 28 29.61 1003 2 3 0.00 0.00
10:11 am 10:11 Windy with Snow Likely 33 0.6 28 -2.2 82 82 NW 20 31 29.61 1003 3 5 0.00 0.00
10:42 am 10:42 Cloudy with Light Snow 34 1.1 29 -1.7 82 82 NW 17 28 29.61 1003 3 4 0.00 0.00
10:52 am 10:52 Cloudy with Light Snow 34 1.1 29 -1.7 82 82 NW 17 28 29.60 1003 3 5 0.00 0.00
11:52 am 11:52 Cloudy with Light Snow 35 1.7 28 -2.2 76 76 NW 17 28 29.58 1002 5 8 0.00 0.00
12:52 pm 12:52 Cloudy 35 1.7 28 -2.2 76 76 NNW 17 28 29.55 1001 10 16 0.00 0.00
1:52 pm 13:52 Cloudy with Light Snow 36 2.2 29 -1.7 76 76 NW 15 24 29.54 1000 5 8 0.00 0.00
2:15 pm 14:15 Cloudy with Light Snow 36 2.2 29 -1.7 76 76 NW 14 22 29.55 1001 10 16 0.00 0.00
2:35 pm 14:35 Cloudy 36 2.2 28 -2.2 73 73 NW 16 26 29.55 1001 9 14 0.00 0.00
2:43 pm 14:43 Cloudy 37 2.8 28 -2.2 70 70 NW 17 28 29.55 1001 10 16 0.00 0.00
2:52 pm 14:52 Cloudy 37 2.8 27 -2.8 67 67 NW 18 30 29.54 1001 10 16 0.00 0.00
3:15 pm 15:15 Cloudy 36 2.2 27 -2.8 70 70 NW 17 28 29.56 1001 10 16 0.00 0.00
3:52 pm 15:52 Cloudy 36 2.2 26 -3.3 67 67 NNW 18 30 29.56 1001 10 16 0.00 0.00
4:52 pm 16:52 Cloudy 36 2.2 24 -4.4 62 62 NW 18 30 29.57 1002 10 16 0.00 0.00
5:52 pm 17:52 Cloudy 36 2.2 22 -5.6 57 57 NW 18 30 29.58 1002 10 16 0.00 0.00
6:52 pm 18:52 Cloudy 35 1.7 21 -6.1 57 57 NW 18 30 29.60 1002 10 16 0.00 0.00
7:52 pm 19:52 Cloudy 34 1.1 23 -5 64 64 NW 20 31 29.61 1003 10 16 0.00 0.00
8:52 pm 20:52 Cloudy 34 1.1 23 -5 64 64 NNW 22 35 29.61 1003 10 16 0.00 0.00
9:52 pm 21:52 Cloudy 33 0.6 20 -6.7 58 58 NNW 22 35 29.62 1003 10 16 0.00 0.00
10:52 pm 22:52 Cloudy 33 0.6 21 -6.1 61 61 NW 16 26 29.60 1003 10 16 0.00 0.00
11:52 pm 23:52 Cloudy 32 0 21 -6.1 64 64 NW 15 24 29.61 1003 10 16 0.00 0.00

Powered by AerisWeather